Time,TemperatureF,DewpointF,PressureIn,WindDirection,WindDirectionDegrees,WindSpeedMPH,WindSpeedGustMPH,Humidity,HourlyPrecipIn,Conditions,Clouds,dailyrainin,SolarRadiationWatts/m^2,SoftwareType,DateUTC
2017-10-18 00:04:00,55.7,42.7,30.02,SSW,209,0.0,2.0,61,-99.99,,,-99.99,0.0,1-wire,2017-10-18 05:04:00,
2017-10-18 00:09:00,55.6,42.8,30.02,SSW,209,0.0,0.0,62,-99.99,,,-99.99,0.4,1-wire,2017-10-18 05:09:00,
2017-10-18 00:15:00,55.4,42.6,30.02,SSW,204,0.0,0.0,62,-99.99,,,-99.99,0.0,1-wire,2017-10-18 05:15:00,
2017-10-18 00:21:00,54.9,42.3,30.02,SSW,204,0.0,0.0,62,-99.99,,,-99.99,0.0,1-wire,2017-10-18 05:21:00,
2017-10-18 00:27:00,55.1,42.4,30.02,SSW,204,0.0,0.0,62,-99.99,,,-99.99,0.3,1-wire,2017-10-18 05:27:00,
2017-10-18 00:32:00,54.9,42.5,30.02,SSW,204,0.0,0.0,63,-99.99,,,-99.99,0.0,1-wire,2017-10-18 05:32:00,
2017-10-18 00:38:00,54.8,42.5,30.02,SSW,204,0.0,2.0,63,-99.99,,,-99.99,0.0,1-wire,2017-10-18 05:38:00,
2017-10-18 00:43:00,54.7,42.2,30.02,SSW,201,1.0,4.0,63,-99.99,,,-99.99,0.0,1-wire,2017-10-18 05:43:00,
2017-10-18 00:49:00,54.8,42.3,30.02,SSW,201,0.0,2.0,63,-99.99,,,-99.99,0.0,1-wire,2017-10-18 05:49:00,
2017-10-18 00:54:00,54.5,42.0,30.02,SSW,201,1.0,5.0,63,-99.99,,,-99.99,0.0,1-wire,2017-10-18 05:54:00,
2017-10-18 01:00:00,54.3,42.2,30.02,SSW,202,0.0,0.0,64,-99.99,,,-99.99,0.3,1-wire,2017-10-18 06:00:00,
2017-10-18 01:06:00,54.3,42.2,30.02,SSW,202,0.0,2.0,64,-99.99,,,-99.99,0.0,1-wire,2017-10-18 06:06:00,
2017-10-18 01:11:00,54.3,42.3,30.02,SSW,202,0.0,2.0,64,-99.99,,,-99.99,0.3,1-wire,2017-10-18 06:11:00,
2017-10-18 01:17:00,53.9,42.3,30.02,SSW,201,1.0,2.0,65,-99.99,,,-99.99,0.0,1-wire,2017-10-18 06:17:00,
2017-10-18 01:23:00,53.8,42.3,30.02,SSW,201,0.0,1.0,65,-99.99,,,-99.99,0.3,1-wire,2017-10-18 06:23:00,
2017-10-18 01:28:00,53.7,42.3,30.02,SSW,205,0.0,2.0,65,-99.99,,,-99.99,0.0,1-wire,2017-10-18 06:28:00,
2017-10-18 01:34:00,53.7,42.3,30.02,SSW,205,0.0,0.0,65,-99.99,,,-99.99,0.0,1-wire,2017-10-18 06:34:00,
2017-10-18 01:40:00,53.2,42.2,30.02,SSW,205,0.0,2.0,66,-99.99,,,-99.99,0.6,1-wire,2017-10-18 06:40:00,
2017-10-18 01:46:00,53.2,42.4,30.02,SSW,200,0.0,4.0,66,-99.99,,,-99.99,0.0,1-wire,2017-10-18 06:46:00,
2017-10-18 01:52:00,52.9,42.4,30.01,SSW,200,0.0,2.0,67,-99.99,,,-99.99,0.4,1-wire,2017-10-18 06:52:00,
2017-10-18 01:57:00,53.0,42.6,30.02,SSW,200,0.0,0.0,68,-99.99,,,-99.99,0.3,1-wire,2017-10-18 06:57:00,
2017-10-18 02:03:00,52.7,42.6,30.02,SSW,200,0.0,3.0,68,-99.99,,,-99.99,0.4,1-wire,2017-10-18 07:03:00,
2017-10-18 02:08:00,52.7,42.5,30.01,SSW,200,1.0,5.0,68,-99.99,,,-99.99,0.0,1-wire,2017-10-18 07:08:00,
2017-10-18 02:13:00,52.6,42.5,30.01,SSW,195,0.0,2.0,68,-99.99,,,-99.99,0.0,1-wire,2017-10-18 07:13:00,
2017-10-18 02:18:00,52.6,42.5,30.01,SSW,195,0.0,0.0,68,-99.99,,,-99.99,0.0,1-wire,2017-10-18 07:18:00,
2017-10-18 02:23:00,52.5,42.7,30.01,SSW,195,0.0,2.0,69,-99.99,,,-99.99,0.0,1-wire,2017-10-18 07:23:00,
2017-10-18 02:28:00,52.8,42.7,30.01,SSW,197,0.0,0.0,68,-99.99,,,-99.99,0.0,1-wire,2017-10-18 07:28:00,
2017-10-18 02:33:00,52.6,42.7,30.02,SSW,197,0.0,0.0,69,-99.99,,,-99.99,0.0,1-wire,2017-10-18 07:33:00,
2017-10-18 02:39:00,52.6,43.0,30.01,SSW,197,0.0,2.0,70,-99.99,,,-99.99,0.0,1-wire,2017-10-18 07:39:00,
2017-10-18 02:44:00,52.4,42.7,30.02,SSW,196,0.0,2.0,70,-99.99,,,-99.99,0.0,1-wire,2017-10-18 07:44:00,
2017-10-18 02:50:00,52.5,42.8,30.01,SSW,196,0.0,2.0,70,-99.99,,,-99.99,0.0,1-wire,2017-10-18 07:50:00,
2017-10-18 02:56:00,52.3,42.9,30.01,SSW,196,1.0,4.0,70,-99.99,,,-99.99,0.0,1-wire,2017-10-18 07:56:00,
2017-10-18 03:01:00,52.4,42.9,30.01,SSW,195,0.0,3.0,70,-99.99,,,-99.99,0.0,1-wire,2017-10-18 08:01:00,
2017-10-18 03:07:00,52.4,42.8,30.01,SSW,195,0.0,2.0,70,-99.99,,,-99.99,0.3,1-wire,2017-10-18 08:07:00,
2017-10-18 03:13:00,52.3,42.8,30.00,SSW,199,0.0,3.0,70,-99.99,,,-99.99,0.3,1-wire,2017-10-18 08:13:00,
2017-10-18 03:19:00,52.3,42.8,30.01,SSW,199,0.0,3.0,70,-99.99,,,-99.99,0.0,1-wire,2017-10-18 08:19:00,
2017-10-18 03:25:00,52.1,42.7,30.01,SSW,199,0.0,2.0,70,-99.99,,,-99.99,0.3,1-wire,2017-10-18 08:25:00,
2017-10-18 03:31:00,51.9,43.0,30.01,SSW,198,0.0,0.0,71,-99.99,,,-99.99,0.0,1-wire,2017-10-18 08:31:00,
2017-10-18 03:36:00,51.8,43.1,30.00,SSW,198,0.0,2.0,72,-99.99,,,-99.99,0.0,1-wire,2017-10-18 08:36:00,
2017-10-18 03:42:00,51.4,43.1,30.00,SSW,200,0.0,0.0,73,-99.99,,,-99.99,0.0,1-wire,2017-10-18 08:42:00,
2017-10-18 03:53:00,51.2,43.2,30.00,SSW,200,0.0,0.0,74,-99.99,,,-99.99,0.0,1-wire,2017-10-18 08:53:00,
2017-10-18 03:59:00,50.9,43.3,30.00,SSW,200,0.0,0.0,75,-99.99,,,-99.99,0.0,1-wire,2017-10-18 08:59:00,
2017-10-18 04:04:00,51.0,43.3,30.00,SSW,200,0.0,0.0,75,-99.99,,,-99.99,0.3,1-wire,2017-10-18 09:04:00,
2017-10-18 04:14:00,50.9,43.7,30.00,SSW,203,0.0,1.0,76,-99.99,,,-99.99,0.0,1-wire,2017-10-18 09:14:00,
2017-10-18 04:19:00,50.8,43.5,30.00,SSW,203,0.0,1.0,76,-99.99,,,-99.99,0.0,1-wire,2017-10-18 09:19:00,
2017-10-18 04:24:00,50.8,43.5,30.00,SSW,203,0.0,3.0,76,-99.99,,,-99.99,0.0,1-wire,2017-10-18 09:24:00,
2017-10-18 04:29:00,50.6,43.6,30.00,SSW,201,0.0,0.0,77,-99.99,,,-99.99,0.0,1-wire,2017-10-18 09:29:00,
2017-10-18 04:35:00,50.4,44.0,30.00,SSW,201,0.0,0.0,79,-99.99,,,-99.99,0.3,1-wire,2017-10-18 09:35:00,
2017-10-18 04:41:00,49.9,43.8,30.00,SSW,201,0.0,0.0,79,-99.99,,,-99.99,0.3,1-wire,2017-10-18 09:41:00,
2017-10-18 04:46:00,49.7,43.9,30.00,SSW,202,0.0,0.0,80,-99.99,,,-99.99,0.0,1-wire,2017-10-18 09:46:00,
2017-10-18 04:52:00,49.5,43.9,30.00,SSW,202,0.0,0.0,81,-99.99,,,-99.99,0.0,1-wire,2017-10-18 09:52:00,
2017-10-18 04:58:00,49.5,44.0,30.00,SSW,204,0.0,2.0,81,-99.99,,,-99.99,0.0,1-wire,2017-10-18 09:58:00,
2017-10-18 05:04:00,49.4,43.8,30.00,SSW,204,0.0,0.0,81,-99.99,,,-99.99,0.3,1-wire,2017-10-18 10:04:00,
2017-10-18 05:10:00,49.4,43.9,30.00,SSW,204,0.0,2.0,81,-99.99,,,-99.99,0.3,1-wire,2017-10-18 10:10:00,
2017-10-18 05:16:00,49.4,43.9,30.00,SSW,193,0.0,0.0,81,-99.99,,,-99.99,0.0,1-wire,2017-10-18 10:16:00,
2017-10-18 05:21:00,49.5,43.8,30.00,SSW,193,0.0,1.0,81,-99.99,,,-99.99,0.0,1-wire,2017-10-18 10:21:00,
2017-10-18 05:26:00,49.3,43.8,30.00,SSW,193,0.0,2.0,81,-99.99,,,-99.99,0.0,1-wire,2017-10-18 10:26:00,
2017-10-18 05:31:00,49.4,44.0,30.00,SSW,193,0.0,0.0,81,-99.99,,,-99.99,0.0,1-wire,2017-10-18 10:31:00,
2017-10-18 05:36:00,49.5,43.9,30.00,SSW,193,0.0,0.0,81,-99.99,,,-99.99,0.0,1-wire,2017-10-18 10:36:00,
2017-10-18 05:41:00,49.5,43.8,30.00,SSW,193,0.0,0.0,81,-99.99,,,-99.99,0.0,1-wire,2017-10-18 10:41:00,
2017-10-18 05:47:00,49.1,43.6,30.00,South,190,0.0,2.0,81,-99.99,,,-99.99,0.6,1-wire,2017-10-18 10:47:00,
2017-10-18 05:53:00,48.9,43.7,30.00,South,190,0.0,0.0,82,-99.99,,,-99.99,0.0,1-wire,2017-10-18 10:53:00,
2017-10-18 05:58:00,48.8,43.7,30.00,South,191,0.0,0.0,82,-99.99,,,-99.99,0.0,1-wire,2017-10-18 10:58:00,
2017-10-18 06:04:00,48.8,43.8,30.01,South,191,0.0,0.0,83,-99.99,,,-99.99,0.3,1-wire,2017-10-18 11:04:00,
2017-10-18 06:09:00,48.6,43.8,30.00,South,191,0.0,2.0,83,-99.99,,,-99.99,0.3,1-wire,2017-10-18 11:09:00,
2017-10-18 06:14:00,48.7,44.1,30.00,SSW,193,0.0,0.0,84,-99.99,,,-99.99,0.0,1-wire,2017-10-18 11:14:00,
2017-10-18 06:19:00,48.4,43.7,30.00,SSW,193,0.0,2.0,84,-99.99,,,-99.99,0.0,1-wire,2017-10-18 11:19:00,
2017-10-18 06:24:00,48.4,43.9,30.01,SSW,193,0.0,0.0,84,-99.99,,,-99.99,0.0,1-wire,2017-10-18 11:24:00,
2017-10-18 06:29:00,48.3,43.7,30.00,South,187,0.0,2.0,84,-99.99,,,-99.99,0.0,1-wire,2017-10-18 11:29:00,
2017-10-18 06:34:00,48.2,43.7,30.00,South,187,0.0,0.0,84,-99.99,,,-99.99,0.3,1-wire,2017-10-18 11:34:00,
2017-10-18 06:40:00,48.1,43.7,30.00,South,187,1.0,4.0,85,-99.99,,,-99.99,0.0,1-wire,2017-10-18 11:40:00,
2017-10-18 06:46:00,48.1,43.6,30.00,South,190,1.0,3.0,84,-99.99,,,-99.99,0.0,1-wire,2017-10-18 11:46:00,
2017-10-18 06:52:00,48.1,43.5,30.00,South,190,1.0,5.0,84,-99.99,,,-99.99,0.0,1-wire,2017-10-18 11:52:00,
2017-10-18 06:58:00,48.2,43.6,30.00,South,190,1.0,5.0,84,-99.99,,,-99.99,0.6,1-wire,2017-10-18 11:58:00,
2017-10-18 07:03:00,48.0,43.4,30.00,South,190,2.0,5.0,84,-99.99,,,-99.99,1.5,1-wire,2017-10-18 12:03:00,
2017-10-18 07:09:00,48.1,43.7,30.00,South,190,0.0,0.0,85,-99.99,,,-99.99,2.1,1-wire,2017-10-18 12:09:00,
2017-10-18 07:14:00,48.1,43.5,30.00,South,184,0.0,0.0,84,-99.99,,,-99.99,3.7,1-wire,2017-10-18 12:14:00,
2017-10-18 07:20:00,47.9,43.3,30.00,South,184,0.0,1.0,84,-99.99,,,-99.99,3.7,1-wire,2017-10-18 12:20:00,
2017-10-18 07:26:00,48.0,43.6,30.00,South,184,1.0,3.0,85,-99.99,,,-99.99,5.6,1-wire,2017-10-18 12:26:00,
2017-10-18 07:32:00,48.2,43.6,30.00,South,186,0.0,0.0,84,-99.99,,,-99.99,7.5,1-wire,2017-10-18 12:32:00,
2017-10-18 07:38:00,48.0,43.0,30.00,South,186,2.0,5.0,83,-99.99,,,-99.99,7.5,1-wire,2017-10-18 12:38:00,
2017-10-18 07:43:00,48.2,43.2,30.00,South,185,1.0,5.0,83,-99.99,,,-99.99,9.7,1-wire,2017-10-18 12:43:00,
2017-10-18 07:48:00,48.4,43.3,30.00,South,185,0.0,2.0,83,-99.99,,,-99.99,11.3,1-wire,2017-10-18 12:48:00,
2017-10-18 07:53:00,48.4,43.4,30.00,South,185,0.0,2.0,83,-99.99,,,-99.99,12.9,1-wire,2017-10-18 12:53:00,
2017-10-18 07:58:00,48.9,43.7,30.00,South,185,0.0,0.0,82,-99.99,,,-99.99,14.7,1-wire,2017-10-18 12:58:00,
2017-10-18 08:03:00,48.9,43.4,30.00,South,185,1.0,7.0,81,-99.99,,,-99.99,15.0,1-wire,2017-10-18 13:03:00,
2017-10-18 08:08:00,49.1,43.6,30.00,South,185,0.0,4.0,81,-99.99,,,-99.99,16.9,1-wire,2017-10-18 13:08:00,
2017-10-18 08:13:00,49.1,43.4,30.00,South,180,3.0,7.0,81,-99.99,,,-99.99,18.8,1-wire,2017-10-18 13:13:00,
2017-10-18 08:18:00,49.4,43.6,30.00,South,180,1.0,4.0,80,-99.99,,,-99.99,18.8,1-wire,2017-10-18 13:18:00,
2017-10-18 08:23:00,49.7,43.5,30.01,South,180,0.0,0.0,79,-99.99,,,-99.99,20.1,1-wire,2017-10-18 13:23:00,
2017-10-18 08:28:00,50.0,43.6,30.00,South,187,0.0,2.0,79,-99.99,,,-99.99,26.4,1-wire,2017-10-18 13:28:00,
2017-10-18 08:33:00,50.1,43.5,30.00,South,187,1.0,5.0,78,-99.99,,,-99.99,22.6,1-wire,2017-10-18 13:33:00,
2017-10-18 08:38:00,50.6,44.0,30.00,South,187,0.0,2.0,78,-99.99,,,-99.99,23.2,1-wire,2017-10-18 13:38:00,
2017-10-18 08:43:00,50.8,44.1,30.00,South,182,4.0,11.0,78,-99.99,,,-99.99,26.1,1-wire,2017-10-18 13:43:00,
2017-10-18 08:48:00,51.2,44.1,30.00,South,182,0.0,0.0,77,-99.99,,,-99.99,39.9,1-wire,2017-10-18 13:48:00,
2017-10-18 08:54:00,51.3,43.7,29.99,South,182,3.0,9.0,75,-99.99,,,-99.99,48.4,1-wire,2017-10-18 13:54:00,
2017-10-18 08:59:00,51.7,44.5,29.99,South,183,2.0,4.0,76,-99.99,,,-99.99,30.1,1-wire,2017-10-18 13:59:00,
2017-10-18 09:04:00,51.9,43.9,29.99,South,183,0.0,2.0,74,-99.99,,,-99.99,58.4,1-wire,2017-10-18 14:04:00,
2017-10-18 09:09:00,52.2,43.8,29.99,South,183,2.0,5.0,73,-99.99,,,-99.99,40.8,1-wire,2017-10-18 14:09:00,
2017-10-18 09:14:00,52.9,44.4,29.99,South,187,2.0,5.0,73,-99.99,,,-99.99,70.5,1-wire,2017-10-18 14:14:00,
2017-10-18 09:19:00,53.3,44.5,30.00,South,187,0.0,0.0,72,-99.99,,,-99.99,49.0,1-wire,2017-10-18 14:19:00,
2017-10-18 09:24:00,53.4,44.2,30.00,South,187,2.0,5.0,71,-99.99,,,-99.99,41.9,1-wire,2017-10-18 14:24:00,
2017-10-18 09:29:00,53.6,43.8,30.00,South,191,0.0,0.0,69,-99.99,,,-99.99,60.3,1-wire,2017-10-18 14:29:00,
2017-10-18 09:34:00,53.8,44.2,29.99,South,191,1.0,3.0,70,-99.99,,,-99.99,50.6,1-wire,2017-10-18 14:34:00,
2017-10-18 09:39:00,54.2,44.2,29.99,South,191,2.0,5.0,69,-99.99,,,-99.99,118.8,1-wire,2017-10-18 14:39:00,
2017-10-18 09:44:00,54.3,44.3,29.99,South,180,3.0,7.0,69,-99.99,,,-99.99,269.8,1-wire,2017-10-18 14:44:00,
2017-10-18 09:49:00,54.7,44.3,29.98,South,180,1.0,3.0,68,-99.99,,,-99.99,277.6,1-wire,2017-10-18 14:49:00,
2017-10-18 09:55:00,55.3,45.1,29.99,South,180,2.0,6.0,68,-99.99,,,-99.99,286.7,1-wire,2017-10-18 14:55:00,
2017-10-18 10:00:00,55.8,45.1,29.98,South,183,0.0,3.0,67,-99.99,,,-99.99,292.4,1-wire,2017-10-18 15:00:00,
2017-10-18 10:05:00,56.1,44.9,29.98,South,183,0.0,0.0,66,-99.99,,,-99.99,299.0,1-wire,2017-10-18 15:05:00,
2017-10-18 10:10:00,56.7,45.2,29.98,South,183,0.0,0.0,65,-99.99,,,-99.99,306.2,1-wire,2017-10-18 15:10:00,
2017-10-18 10:15:00,57.4,45.7,29.98,South,191,2.0,5.0,65,-99.99,,,-99.99,311.6,1-wire,2017-10-18 15:15:00,
2017-10-18 10:20:00,57.8,45.2,29.97,South,191,4.0,8.0,63,-99.99,,,-99.99,317.5,1-wire,2017-10-18 15:20:00,
2017-10-18 10:25:00,58.5,45.6,29.97,South,191,2.0,7.0,62,-99.99,,,-99.99,322.9,1-wire,2017-10-18 15:25:00,
2017-10-18 10:30:00,58.9,45.3,29.98,SSW,194,2.0,9.0,61,-99.99,,,-99.99,327.3,1-wire,2017-10-18 15:30:00,
2017-10-18 10:36:00,59.8,45.8,29.98,SSW,194,2.0,5.0,60,-99.99,,,-99.99,333.5,1-wire,2017-10-18 15:36:00,
2017-10-18 10:41:00,60.7,46.6,29.97,SSW,194,0.0,2.0,60,-99.99,,,-99.99,338.1,1-wire,2017-10-18 15:41:00,
2017-10-18 10:47:00,61.4,46.4,29.96,South,190,3.0,7.0,58,-99.99,,,-99.99,343.3,1-wire,2017-10-18 15:47:00,
2017-10-18 10:52:00,61.7,46.2,29.96,South,190,2.0,9.0,57,-99.99,,,-99.99,347.4,1-wire,2017-10-18 15:52:00,
2017-10-18 10:57:00,62.3,46.5,29.96,South,190,5.0,9.0,56,-99.99,,,-99.99,352.0,1-wire,2017-10-18 15:57:00,
2017-10-18 11:03:00,63.1,47.0,29.96,SSW,196,3.0,7.0,56,-99.99,,,-99.99,356.5,1-wire,2017-10-18 16:03:00,
2017-10-18 11:09:00,63.5,47.1,29.97,SSW,196,2.0,5.0,55,-99.99,,,-99.99,361.6,1-wire,2017-10-18 16:09:00,
2017-10-18 11:14:00,64.0,47.2,29.97,SSW,196,3.0,7.0,54,-99.99,,,-99.99,363.8,1-wire,2017-10-18 16:14:00,
2017-10-18 11:19:00,64.2,47.3,29.96,SSW,196,1.0,3.0,54,-99.99,,,-99.99,366.3,1-wire,2017-10-18 16:19:00,
2017-10-18 11:25:00,64.3,47.0,29.96,SSW,196,3.0,7.0,53,-99.99,,,-99.99,369.7,1-wire,2017-10-18 16:25:00,
2017-10-18 11:31:00,64.9,48.0,29.96,SSW,195,2.0,5.0,54,-99.99,,,-99.99,373.8,1-wire,2017-10-18 16:31:00,
2017-10-18 11:36:00,65.5,47.7,29.95,SSW,195,3.0,9.0,53,-99.99,,,-99.99,376.3,1-wire,2017-10-18 16:36:00,